Location: Prague
(50.0830°N, 14.4670°E)
Time: 20:25:53
(UTC+02:00)

X-37B - Visible Passes

Search period start: 21 September 2020 00:00
Search period end: 01 October 2020 00:00
Orbit: 386 x 387 km, 45.0° (Epoch: 18 September)

Date Brightness Start Highest point End Pass type
(mag) Time Alt. Az. Time Alt. Az. Time Alt. Az.
21 Sep 3.5 04:09:45 12° ESE 04:09:45 12° ESE 04:10:08 10° ESE visible
21 Sep 2.1 05:42:02 17° SW 05:43:24 22° SSW 05:45:56 10° SE visible
22 Sep 2.6 04:46:19 20° SSE 04:46:19 20° SSE 04:47:45 10° SE visible
23 Sep 2.6 05:23:01 16° SSW 05:23:01 16° SSW 05:24:44 10° SSE visible
